• In Slovakia
  • List of Countries
  • For 7 days
  • Water Temperature
  • Satellite Maps
  • Weather Map
  • Weather Widgets
  • user-avatar
    Login

    Hourly Weather Munich

    Today, 20 May, Sunday

    Time Temperature Precipitation Wind Pressure Humidity
    00:00 +12°C° 0.2 mm 1 mps 718 mmHg 94%
    01:00 +11°C° 0 mm 1 mps 718 mmHg 96%
    02:00 +11°C° 0.1 mm 1 mps 718 mmHg 96%
    03:00 +11°C° 0.1 mm 1 mps 718 mmHg 96%
    04:00 +11°C° 0.1 mm 1 mps 718 mmHg 96%
    05:00 +10°C° 0.1 mm 2 mps 718 mmHg 95%
    06:00 +12°C° 0.1 mm 2 mps 718 mmHg 94%
    07:00 +12°C° 0.1 mm 2 mps 718 mmHg 92%
    08:00 +13°C° 0.1 mm 3 mps 718 mmHg 87%
    09:00 +14°C° 0.1 mm 3 mps 718 mmHg 81%
    10:00 +16°C° 0.1 mm 3 mps 718 mmHg 76%
    11:00 +17°C° 0.1 mm 4 mps 718 mmHg 70%
    12:00 +19°C° 0.1 mm 4 mps 718 mmHg 65%
    13:00 +20°C° 0.1 mm 5 mps 717 mmHg 60%
    14:00 +20°C° 0.2 mm 5 mps 717 mmHg 61%
    15:00 +20°C° 0.2 mm 5 mps 717 mmHg 62%
    16:00 +20°C° 0.2 mm 4 mps 716 mmHg 63%
    17:00 +19°C° 0.1 mm 4 mps 716 mmHg 67%
    18:00 +18°C° 0.1 mm 4 mps 716 mmHg 72%
    19:00 +17°C° 0.1 mm 3 mps 716 mmHg 76%
    20:00 +16°C° 0.1 mm 3 mps 716 mmHg 78%
    21:00 +14°C° 0.1 mm 3 mps 716 mmHg 79%
    22:00 +13°C° 0.1 mm 3 mps 716 mmHg 81%
    23:00 +12°C° 0 mm 3 mps 716 mmHg 83%

    Tomorrow, 21 May, Monday

    Time Temperature Precipitation Wind Pressure Humidity
    00:00 +12°C° 0 mm 3 mps 716 mmHg 86%
    01:00 +12°C° 0 mm 2 mps 716 mmHg 88%
    02:00 +10°C° 0 mm 2 mps 716 mmHg 89%
    03:00 +10°C° 0 mm 2 mps 715 mmHg 91%
    04:00 +9°C° 0 mm 2 mps 715 mmHg 92%
    05:00 +10°C° 0 mm 2 mps 715 mmHg 87%
    06:00 +13°C° 0 mm 2 mps 715 mmHg 82%
    07:00 +14°C° 0 mm 2 mps 715 mmHg 77%
    08:00 +16°C° 0 mm 2 mps 715 mmHg 71%
    09:00 +18°C° 0 mm 2 mps 715 mmHg 64%
    10:00 +20°C° 0 mm 2 mps 715 mmHg 58%
    11:00 +21°C° 0 mm 2 mps 715 mmHg 56%
    12:00 +23°C° 0 mm 2 mps 714 mmHg 54%
    13:00 +24°C° 0 mm 3 mps 714 mmHg 52%
    14:00 +24°C° 0.2 mm 3 mps 714 mmHg 54%
    15:00 +24°C° 0.2 mm 3 mps 714 mmHg 55%
    16:00 +24°C° 0.2 mm 3 mps 713 mmHg 57%
    17:00 +21°C° 0.2 mm 2 mps 713 mmHg 64%
    18:00 +20°C° 0.2 mm 2 mps 713 mmHg 71%
    19:00 +19°C° 0.2 mm 2 mps 713 mmHg 78%
    20:00 +17°C° 0.2 mm 2 mps 713 mmHg 81%
    21:00 +16°C° 0.2 mm 2 mps 713 mmHg 84%
    22:00 +14°C° 0.2 mm 2 mps 713 mmHg 87%
    23:00 +14°C° 0.1 mm 2 mps 713 mmHg 89%

    Day after tomorrow, 22 May, Tuesday

    Time Temperature Precipitation Wind Pressure Humidity
    00:00 +13°C° 0.1 mm 1 mps 713 mmHg 91%
    01:00 +12°C° 0.1 mm 1 mps 713 mmHg 92%
    02:00 +12°C° 0 mm 1 mps 713 mmHg 93%
    03:00 +12°C° 0 mm 1 mps 713 mmHg 93%
    04:00 +11°C° 0 mm 1 mps 713 mmHg 93%
    05:00 +12°C° 0.1 mm 1 mps 713 mmHg 90%
    06:00 +14°C° 0.1 mm 1 mps 713 mmHg 87%
    07:00 +15°C° 0.1 mm 1 mps 713 mmHg 84%
    08:00 +18°C° 0.1 mm 1 mps 713 mmHg 78%
    09:00 +20°C° 0.1 mm 1 mps 714 mmHg 72%
    10:00 +22°C° 0.1 mm 1 mps 714 mmHg 66%
    11:00 +23°C° 0.3 mm 1 mps 714 mmHg 63%
    12:00 +24°C° 0.3 mm 1 mps 714 mmHg 60%
    13:00 +24°C° 0.3 mm 1 mps 714 mmHg 57%
    14:00 +24°C° 0.4 mm 1 mps 714 mmHg 60%
    15:00 +24°C° 0.4 mm 1 mps 714 mmHg 63%
    16:00 +24°C° 0.4 mm 1 mps 714 mmHg 66%
    17:00 +22°C° 0.8 mm 1 mps 714 mmHg 70%
    18:00 +21°C° 0.8 mm 1 mps 714 mmHg 75%
    19:00 +20°C° 0.8 mm 1 mps 714 mmHg 80%
    20:00 +19°C° 0.9 mm 1 mps 714 mmHg 82%
    21:00 +18°C° 0.9 mm 1 mps 715 mmHg 85%
    22:00 +16°C° 0.9 mm 1 mps 715 mmHg 88%
    23:00 +15°C° 0.4 mm 1 mps 715 mmHg 89%

    23 May, Wednesday

    Time Temperature Precipitation Wind Pressure Humidity
    00:00 +15°C° 0.4 mm 1 mps 715 mmHg 91%
    01:00 +14°C° 0.4 mm 1 mps 715 mmHg 92%
    02:00 +14°C° 0.5 mm 1 mps 715 mmHg 92%
    03:00 +13°C° 0.5 mm 1 mps 715 mmHg 93%
    04:00 +13°C° 0.5 mm 1 mps 716 mmHg 93%
    05:00 +14°C° 0.2 mm 1 mps 716 mmHg 92%
    06:00 +15°C° 0.2 mm 1 mps 716 mmHg 90%
    07:00 +16°C° 0.2 mm 1 mps 717 mmHg 89%
    08:00 +18°C° 0.2 mm 1 mps 717 mmHg 83%
    09:00 +20°C° 0.2 mm 1 mps 717 mmHg 78%
    10:00 +22°C° 0.2 mm 1 mps 717 mmHg 72%
    11:00 +23°C° 0.5 mm 1 mps 717 mmHg 69%
    12:00 +23°C° 0.5 mm 2 mps 717 mmHg 66%
    13:00 +24°C° 0.5 mm 2 mps 717 mmHg 63%
    14:00 +24°C° 0.2 mm 3 mps 717 mmHg 64%
    15:00 +24°C° 0.2 mm 3 mps 717 mmHg 64%
    16:00 +24°C° 0.2 mm 3 mps 717 mmHg 65%
    17:00 +22°C° 0.4 mm 3 mps 717 mmHg 72%
    18:00 +20°C° 0.4 mm 2 mps 717 mmHg 79%
    19:00 +19°C° 0.4 mm 2 mps 717 mmHg 86%
    20:00 +18°C° 0.7 mm 2 mps 717 mmHg 89%
    21:00 +17°C° 0.7 mm 2 mps 717 mmHg 91%
    22:00 +16°C° 0.7 mm 2 mps 718 mmHg 94%
    23:00 +16°C° 0.2 mm 2 mps 718 mmHg 94%

    24 May, Thursday

    Time Temperature Precipitation Wind Pressure Humidity
    00:00 +15°C° 0.2 mm 2 mps 718 mmHg 95%
    01:00 +15°C° 0.2 mm 2 mps 718 mmHg 96%
    02:00 +15°C° 0 mm 2 mps 718 mmHg 96%
    03:00 +14°C° 0 mm 2 mps 718 mmHg 96%
    04:00 +14°C° 0 mm 1 mps 718 mmHg 97%
    05:00 +15°C° 0 mm 2 mps 718 mmHg 95%
    06:00 +15°C° 0 mm 2 mps 718 mmHg 93%
    07:00 +16°C° 0 mm 2 mps 718 mmHg 92%
    08:00 +17°C° 0 mm 2 mps 718 mmHg 88%
    09:00 +18°C° 0 mm 2 mps 718 mmHg 84%
    10:00 +19°C° 0 mm 3 mps 718 mmHg 81%
    11:00 +20°C° 0.1 mm 3 mps 718 mmHg 76%
    12:00 +21°C° 0.1 mm 3 mps 718 mmHg 72%
    13:00 +22°C° 0.1 mm 3 mps 718 mmHg 67%
    14:00 +24°C° 0.3 mm 3 mps 718 mmHg 67%
    15:00 +23°C° 0.3 mm 4 mps 717 mmHg 66%
    16:00 +23°C° 0.3 mm 4 mps 717 mmHg 66%
    17:00 +22°C° 0.3 mm 3 mps 717 mmHg 71%
    18:00 +21°C° 0.3 mm 3 mps 717 mmHg 77%
    19:00 +19°C° 0.3 mm 3 mps 717 mmHg 83%
    20:00 +18°C° 0 mm 3 mps 718 mmHg 86%
    21:00 +17°C° 0 mm 2 mps 718 mmHg 89%
    22:00 +15°C° 0 mm 2 mps 718 mmHg 92%
    23:00 +15°C° 0 mm 2 mps 718 mmHg 93%

    25 May, Friday

    Time Temperature Precipitation Wind Pressure Humidity
    00:00 +14°C° 0 mm 2 mps 718 mmHg 94%
    01:00 +14°C° 0 mm 2 mps 717 mmHg 95%
    02:00 +13°C° 0 mm 2 mps 717 mmHg 96%
    03:00 +13°C° 0 mm 2 mps 717 mmHg 96%
    04:00 +13°C° 0 mm 2 mps 717 mmHg 97%
    05:00 +14°C° 0 mm 2 mps 717 mmHg 94%
    06:00 +15°C° 0 mm 2 mps 717 mmHg 92%
    07:00 +16°C° 0 mm 2 mps 717 mmHg 89%
    08:00 +17°C° 0 mm 2 mps 717 mmHg 84%
    09:00 +18°C° 0 mm 3 mps 717 mmHg 78%
    10:00 +20°C° 0 mm 3 mps 717 mmHg 72%
    11:00 +21°C° 0 mm 3 mps 717 mmHg 68%
    12:00 +22°C° 0 mm 3 mps 717 mmHg 63%
    13:00 +24°C° 0 mm 3 mps 717 mmHg 59%
    14:00 +24°C° 0.1 mm 3 mps 716 mmHg 59%
    15:00 +22°C° 0.1 mm 3 mps 716 mmHg 60%
    16:00 +22°C° 0.1 mm 3 mps 716 mmHg 61%
    17:00 +21°C° 0.2 mm 2 mps 716 mmHg 67%
    18:00 +20°C° 0.2 mm 2 mps 716 mmHg 74%
    19:00 +18°C° 0.2 mm 2 mps 716 mmHg 81%
    20:00 +17°C° 0 mm 2 mps 716 mmHg 84%
    21:00 +15°C° 0 mm 2 mps 717 mmHg 88%
    22:00 +14°C° 0 mm 2 mps 717 mmHg 91%
    23:00 +13°C° 0 mm 1 mps 717 mmHg 92%
    Show more